Wind_Speed
49 50 51 51 51 51 52 53 53 53 53 53 53 53 53 54 54 55 55 55 53 53 53 52 52 51 51 51 50 50 49 49 49 48 48 48 48 48 48 48 49 49 49
49 49 50 50 50 50 51 52 52 52 53 52 52 52 52 53 53 54 55 55 54 53 53 53 53 52 52 51 51 50 49 49 49 49 48 48 48 49 49 49 50 50 50
48 49 50 50 50 49 49 50 51 51 52 52 51 51 52 52 52 53 53 54 54 54 54 54 53 52 51 51 50 50 50 50 50 49 49 49 48 49 49 49 50 51 50
47 48 48 49 49 49 49 49 49 50 51 51 51 51 51 51 51 52 52 53 54 54 54 53 52 51 51 50 50 51 51 51 51 50 49 49 49 49 49 50 51 51 50
45 46 47 48 48 48 48 48 49 50 50 50 50 50 50 50 50 50 50 51 52 52 52 52 52 51 51 51 50 51 51 51 51 51 50 49 48 48 49 50 50 50 50
42 44 44 45 46 46 46 45 46 47 49 50 50 50 49 49 49 49 49 49 50 50 51 52 52 51 50 51 51 51 51 50 50 50 50 48 47 48 49 50 50 50 50
39 40 41 43 43 43 44 43 43 44 46 47 48 48 48 47 47 47 47 48 48 49 50 50 50 50 50 50 50 49 49 49 49 49 49 49 48 49 49 49 49 50 48
36 37 37 38 39 40 40 40 41 42 42 44 46 46 46 46 46 47 47 47 46 47 48 48 49 49 49 48 47 47 48 48 48 48 49 49 49 48 49 49 49 49 48
34 34 34 35 36 37 37 37 38 39 40 40 41 42 43 43 44 45 45 44 44 44 44 45 46 47 47 46 46 46 47 47 47 47 47 46 47 47 48 48 48 48 47
33 33 33 33 34 34 34 35 35 36 36 37 38 39 40 40 41 41 41 41 41 41 42 42 43 44 44 45 46 46 46 46 45 46 46 45 45 46 46 46 47 47 47
31 32 32 32 32 32 33 34 34 35 35 36 36 37 38 39 39 39 40 40 39 40 40 40 41 42 42 44 45 45 45 45 44 44 45 44 45 45 45 45 45 46 45
30 30 31 31 31 32 32 33 34 34 34 34 35 36 36 37 37 37 38 38 38 39 39 39 40 41 42 43 43 43 43 43 43 43 44 44 44 44 44 44 43 43 42
28 29 29 30 30 31 31 32 32 32 33 33 34 34 35 35 36 36 37 37 39 39 39 39 40 41 41 41 41 41 42 42 42 43 44 44 44 43 42 41 40 40 38
27 27 28 29 29 30 31 31 32 32 33 33 34 33 33 34 35 35 36 37 37 38 38 38 39 40 40 40 40 41 41 41 41 42 42 42 42 41 40 38 37 35 35
25 25 26 27 27 28 29 30 30 31 31 31 31 32 32 32 33 34 34 35 35 35 36 37 38 38 38 38 39 38 38 38 38 38 38 38 38 37 35 34 32 32 31
23 24 25 26 26 27 27 27 28 29 29 30 30 30 30 31 31 31 31 32 33 34 34 35 36 36 36 35 35 35 35 35 35 35 35 35 34 32 30 30 29 29 29
22 22 23 25 25 25 25 25 26 26 27 27 28 28 29 29 29 29 30 30 31 32 32 32 33 33 33 32 32 32 32 32 32 31 31 30 30 29 28 27 27 27 27
20 20 20 20 21 22 22 23 24 24 25 25 26 26 27 28 28 28 29 29 29 29 29 30 30 30 29 29 29 29 29 29 29 28 27 27 27 26 26 25 25 25 26
19 19 19 19 20 20 20 21 22 22 22 23 23 24 25 26 27 27 28 27 27 27 27 27 27 26 26 26 26 26 25 24 24 24 24 24 24 24 24 23 23 23 24
19 19 19 19 19 18 18 19 20 19 19 20 21 22 23 24 25 25 26 27 27 26 25 25 25 25 24 25 24 23 23 22 21 21 21 21 21 21 21 21 21 22 22
18 18 18 18 17 17 17 18 18 19 19 19 19 20 21 21 22 23 24 24 24 24 23 23 22 23 22 23 22 21 21 20 20 19 19 19 19 19 19 20 20 21 22
17 17 17 17 16 16 16 17 17 18 18 18 19 19 20 20 19 19 20 20 20 20 20 20 20 20 20 20 20 20 19 19 19 18 18 18 19 19 19 19 19 20 21
17 17 17 17 16 15 15 16 16 17 17 17 17 17 17 17 16 17 17 17 17 17 17 17 17 17 17 17 17 18 18 18 18 18 18 18 19 19 19 19 20 20 20
17 17 16 15 16 15 15 15 15 15 14 15 15 15 15 15 16 16 16 17 16 16 16 16 16 16 16 16 16 17 17 17 17 18 18 18 18 18 19 19 19 18 18
16 16 15 15 15 15 15 15 14 14 14 14 14 14 14 15 15 15 16 17 16 16 16 16 16 16 16 16 16 16 17 17 17 17 17 18 18 18 18 17 17 16 16
16 15 15 14 14 14 14 14 14 14 14 13 13 14 14 14 15 15 16 17 17 17 17 16 16 16 16 16 16 16 17 17 17 17 17 18 18 17 17 16 15 14 14
Wind_Direction
259 259 259 259 260 260 259 257 256 256 256 255 255 255 255 255 255 256 255 256 257 257 258 260 260 260 261 261 261 262 263 264 264 263 264 266 267 267 269 271 272 273 273
259 259 260 260 260 260 259 257 256 255 255 255 255 255 255 256 256 256 256 256 257 257 258 259 260 261 262 261 261 261 262 263 264 264 265 267 268 268 269 271 272 274 275
259 259 260 260 260 260 260 258 257 255 255 255 256 255 256 256 257 256 256 257 257 258 258 258 259 260 260 261 261 262 262 262 264 265 266 267 268 268 269 272 274 274 276
261 260 261 260 261 260 261 259 258 256 256 255 256 256 256 257 257 257 256 257 257 258 257 257 258 259 259 260 261 261 262 263 264 265 266 267 268 269 270 272 274 275 276
263 262 261 260 261 260 259 259 258 257 256 255 256 257 257 256 256 257 257 257 257 257 257 257 258 258 260 260 261 261 263 264 264 265 266 267 269 270 271 272 273 274 275
265 264 262 261 261 260 259 258 257 257 257 256 256 256 256 256 256 256 256 256 257 256 256 257 258 259 259 260 261 262 263 264 264 265 265 266 268 269 270 272 273 273 274
266 265 263 261 260 260 259 257 257 258 258 258 257 256 256 256 255 255 256 257 256 256 256 257 258 259 259 260 261 261 262 263 264 265 266 266 267 269 271 271 272 273 273
266 265 264 262 261 260 259 258 258 259 260 259 257 255 255 255 255 255 255 255 255 257 258 258 258 259 259 260 259 261 262 263 265 266 266 266 266 268 270 271 272 273 273
268 266 266 263 262 260 259 258 258 259 260 259 256 254 254 255 255 255 254 253 255 257 258 258 258 258 259 259 260 262 263 264 264 265 265 265 267 268 270 271 272 274 275
270 268 266 264 262 260 258 257 257 259 260 259 257 254 254 254 254 253 252 253 254 255 257 258 259 260 260 260 262 263 263 263 264 264 264 266 267 268 269 272 274 275 276
271 268 265 263 261 259 258 258 259 259 259 259 258 256 255 254 253 252 252 253 253 254 256 259 259 260 260 260 262 262 263 263 264 265 265 267 269 270 271 272 273 274 274
271 267 264 263 262 260 260 260 261 260 260 260 259 258 257 255 253 251 252 253 253 254 257 260 260 261 261 261 261 262 263 263 264 266 268 269 271 270 271 272 273 272 272
271 267 264 263 262 261 261 261 262 261 261 261 259 258 258 256 254 253 254 253 255 256 258 259 261 262 262 262 261 263 264 265 265 266 268 269 270 270 270 270 271 270 270
272 269 265 263 263 262 262 261 261 261 261 261 259 257 257 255 254 255 255 255 256 258 259 260 261 261 262 262 264 264 264 265 266 267 267 267 268 267 267 268 268 268 268
273 270 267 264 263 263 263 263 262 261 261 260 259 258 256 255 255 254 255 256 258 260 261 260 261 261 262 263 264 264 264 265 265 266 266 265 265 264 264 264 265 266 267
274 270 267 265 265 267 266 264 263 263 261 260 259 257 255 255 253 254 255 256 258 260 261 261 260 260 261 262 262 262 263 263 264 265 264 263 263 262 261 262 263 264 266
277 274 270 268 267 267 266 266 266 264 261 259 258 257 256 254 253 253 255 257 259 260 260 259 258 258 259 258 259 259 260 261 262 263 263 262 260 259 260 260 260 262 265
280 276 273 270 269 268 269 268 267 263 261 260 259 258 257 256 255 255 257 259 259 259 258 257 256 256 255 256 257 258 259 259 259 260 258 257 257 257 258 259 260 262 266
281 278 275 273 272 272 270 269 266 263 261 260 259 258 258 258 258 256 256 257 257 257 256 254 253 253 253 254 256 256 256 257 258 257 254 254 255 255 256 257 261 264 266
282 280 278 276 274 272 269 269 266 263 265 265 262 260 260 260 258 257 256 256 256 254 252 252 252 251 252 252 253 254 255 256 255 254 252 253 254 254 254 257 262 266 268
283 282 281 278 275 273 271 270 268 266 267 266 264 263 262 261 260 257 255 254 252 250 249 251 251 251 251 251 250 250 250 250 251 251 250 251 252 251 254 258 263 267 270
284 282 281 280 277 275 273 270 269 270 270 267 265 264 263 261 259 256 252 250 246 246 247 247 249 249 249 249 248 245 245 246 248 248 248 249 250 252 256 260 265 270 273
284 282 282 279 276 275 272 271 271 271 269 267 265 263 259 254 251 250 248 246 246 245 244 244 246 245 244 243 243 243 244 244 245 246 247 250 253 256 260 265 271 275 277
287 284 281 276 275 273 269 269 271 272 271 267 266 263 258 253 250 250 247 244 244 243 241 242 244 242 241 240 241 242 243 245 247 248 249 252 255 259 264 270 275 278 278
288 286 280 275 275 272 268 267 269 269 269 268 266 263 259 254 251 250 247 243 243 243 243 242 241 241 242 243 243 243 244 246 247 249 252 255 257 261 265 270 273 275 276
287 285 280 277 276 273 268 268 270 270 270 269 268 266 263 259 256 253 249 244 243 243 243 241 239 239 241 243 244 245 246 247 247 250 253 256 260 262 263 266 269 269 270
Height
5612 5612 5613 5615 5615 5616 5617 5618 5620 5621 5623 5625 5627 5630 5632 5635 5638 5641 5644 5646 5649 5651 5653 5655 5656 5657 5658 5660 5661 5662 5663 5663 5665 5667 5667 5667 5667 5667 5667 5667 5667 5666 5666
5598 5599 5600 5601 5601 5602 5603 5604 5606 5607 5609 5611 5613 5616 5619 5622 5624 5627 5629 5632 5635 5638 5640 5642 5643 5644 5645 5647 5648 5649 5650 5651 5652 5654 5654 5654 5654 5655 5655 5655 5654 5654 5653
5585 5586 5586 5587 5588 5589 5590 5591 5592 5593 5595 5598 5600 5602 5605 5608 5611 5613 5616 5618 5621 5624 5626 5628 5630 5631 5633 5634 5635 5636 5637 5638 5639 5640 5642 5642 5642 5642 5641 5642 5641 5641 5640
5572 5572 5573 5574 5575 5575 5576 5577 5579 5580 5583 5585 5587 5589 5592 5595 5597 5600 5602 5605 5607 5610 5612 5614 5616 5618 5620 5621 5622 5623 5624 5625 5626 5627 5629 5629 5629 5629 5628 5629 5628 5628 5627
5559 5559 5560 5561 5561 5562 5563 5564 5566 5567 5569 5571 5574 5576 5579 5581 5584 5586 5589 5591 5594 5596 5598 5601 5603 5605 5606 5608 5609 5610 5611 5612 5613 5614 5615 5616 5616 5616 5616 5615 5615 5614 5614
5546 5546 5546 5547 5548 5549 5550 5551 5552 5554 5556 5558 5560 5563 5565 5568 5571 5573 5576 5578 5581 5583 5585 5587 5589 5591 5593 5594 5596 5597 5597 5598 5599 5600 5602 5602 5603 5602 5602 5602 5601 5601 5602
5533 5533 5534 5534 5535 5536 5537 5538 5540 5541 5542 5544 5547 5550 5552 5555 5558 5560 5562 5565 5568 5570 5572 5574 5576 5578 5579 5581 5582 5583 5584 5585 5586 5587 5588 5589 5590 5590 5589 5588 5588 5588 5588
5522 5521 5521 5522 5523 5524 5525 5526 5528 5529 5530 5532 5534 5537 5539 5542 5545 5547 5549 5552 5555 5557 5559 5561 5563 5565 5566 5568 5569 5571 5572 5573 5573 5574 5575 5576 5576 5575 5575 5575 5575 5574 5574
5511 5510 5510 5511 5512 5512 5514 5515 5516 5517 5518 5520 5522 5524 5527 5529 5532 5534 5536 5539 5542 5545 5547 5549 5550 5552 5554 5555 5557 5559 5560 5560 5560 5560 5561 5562 5563 5562 5562 5562 5561 5561 5562
5501 5500 5500 5501 5501 5502 5504 5505 5506 5507 5508 5509 5511 5513 5515 5518 5520 5522 5524 5528 5531 5534 5535 5537 5539 5540 5542 5542 5544 5546 5547 5547 5547 5548 5549 5550 5550 5550 5549 5549 5548 5548 5548
5492 5491 5491 5492 5492 5493 5494 5495 5496 5497 5498 5499 5501 5502 5504 5507 5509 5511 5513 5516 5520 5522 5524 5526 5528 5529 5529 5530 5531 5533 5534 5534 5535 5536 5537 5537 5537 5537 5536 5536 5535 5535 5534
5483 5482 5482 5483 5483 5484 5485 5485 5486 5487 5488 5489 5491 5492 5494 5496 5498 5500 5503 5506 5508 5511 5513 5515 5516 5517 5517 5518 5519 5520 5521 5521 5522 5523 5524 5524 5524 5524 5524 5524 5523 5522 5522
5474 5474 5474 5474 5475 5475 5476 5476 5477 5477 5478 5480 5481 5483 5484 5486 5488 5490 5492 5495 5497 5499 5502 5503 5504 5505 5506 5506 5507 5508 5508 5509 5510 5510 5511 5511 5511 5511 5511 5512 5511 5511 5510
5466 5466 5466 5466 5466 5466 5467 5467 5468 5468 5469 5470 5471 5473 5475 5476 5478 5480 5482 5484 5486 5488 5490 5491 5492 5493 5494 5495 5495 5495 5496 5497 5497 5498 5498 5499 5499 5499 5499 5500 5500 5500 5500
5459 5458 5458 5458 5458 5458 5458 5458 5459 5459 5459 5460 5462 5463 5465 5467 5468 5470 5471 5474 5475 5477 5478 5480 5481 5482 5483 5483 5484 5484 5484 5485 5486 5486 5486 5487 5487 5488 5489 5489 5490 5490 5490
5451 5450 5450 5450 5450 5450 5450 5450 5450 5450 5451 5452 5453 5455 5457 5458 5459 5460 5462 5463 5465 5466 5467 5468 5469 5470 5471 5472 5473 5473 5474 5474 5475 5475 5476 5476 5477 5478 5479 5480 5481 5482 5482
5444 5443 5443 5442 5442 5442 5442 5442 5442 5442 5443 5444 5445 5446 5448 5449 5450 5451 5453 5454 5455 5455 5456 5458 5459 5460 5461 5462 5463 5464 5465 5465 5465 5466 5466 5467 5468 5469 5471 5472 5473 5474 5474
5438 5437 5436 5436 5436 5435 5435 5435 5435 5436 5436 5436 5437 5438 5439 5440 5441 5443 5444 5444 5445 5446 5447 5448 5449 5450 5451 5452 5454 5454 5455 5456 5457 5457 5458 5459 5460 5462 5463 5464 5465 5466 5466
5433 5432 5431 5431 5430 5429 5429 5429 5429 5429 5429 5430 5430 5431 5431 5432 5433 5433 5434 5435 5436 5437 5438 5439 5441 5442 5443 5444 5445 5446 5447 5448 5449 5450 5451 5452 5453 5455 5456 5457 5458 5458 5459
5428 5427 5426 5425 5424 5424 5423 5423 5423 5423 5423 5423 5423 5423 5423 5424 5424 5424 5425 5426 5427 5429 5430 5431 5433 5434 5435 5436 5438 5439 5440 5441 5442 5443 5445 5446 5447 5448 5450 5451 5451 5452 5452
5423 5422 5421 5420 5419 5418 5418 5417 5417 5417 5417 5417 5416 5416 5416 5416 5416 5417 5418 5419 5420 5421 5423 5424 5425 5427 5428 5429 5431 5432 5434 5435 5437 5438 5439 5440 5442 5443 5444 5445 5445 5446 5445
5418 5417 5416 5415 5414 5413 5412 5412 5412 5411 5411 5410 5410 5410 5409 5410 5410 5410 5411 5412 5413 5414 5416 5417 5419 5420 5422 5423 5425 5426 5428 5430 5432 5433 5434 5436 5437 5438 5439 5440 5440 5440 5439
5413 5412 5410 5409 5408 5408 5407 5407 5406 5406 5405 5405 5404 5404 5404 5404 5404 5405 5406 5407 5408 5409 5411 5412 5414 5415 5417 5418 5420 5422 5424 5425 5427 5428 5429 5431 5432 5433 5433 5434 5434 5433 5433
5408 5406 5405 5404 5403 5403 5402 5401 5401 5400 5400 5399 5399 5399 5399 5399 5399 5400 5401 5402 5403 5405 5406 5408 5409 5411 5412 5414 5415 5417 5419 5420 5422 5423 5424 5426 5426 5427 5428 5428 5428 5427 5427
5403 5401 5400 5399 5398 5397 5397 5396 5396 5396 5395 5395 5395 5394 5394 5394 5395 5396 5397 5398 5399 5400 5401 5403 5404 5406 5408 5409 5411 5412 5414 5415 5417 5418 5419 5420 5421 5422 5422 5422 5422 5422 5421
5397 5396 5395 5394 5393 5392 5392 5391 5391 5391 5390 5390 5390 5389 5389 5390 5390 5391 5392 5393 5394 5395 5397 5398 5400 5401 5403 5405 5406 5408 5409 5410 5412 5413 5414 5415 5416 5416 5417 5417 5417 5417 5417